Latest Weather Observations for Lake Macquarie - Cooranbong

IDN60901

Issued at 5:45 pm EST Wednesday 23 July 2014 (issued every 10 minutes, with the page automatically refreshed every 10 minutes)

About weather observations | Map of Sydney area stations | Latest observations for Sydney area | Other Formats
Station Details ID: 061412 Name: LAKE MACQUARIE AWS Lat: -33.09 Lon: 151.46 Height: 6.0 m
Data from the previous 72 hours. | See also: Recent months at Lake Macquarie - Cooranbong
Date/Time
EST
Tmp

°C
App
Tmp
°C
Dew
Point
°C
Rel
Hum
%
Delta-T

°C
Wind Press
QNH
hPa
Press
MSL
hPa
Rain
since
9 am
mm
Dir
 
Spd
km/h
Gust
km/h
Spd
kts
Gust
kts
23/05:30pm 12.4 12.2 9.2 81 1.6 ESE 0 0 0 0 1022.7 - 0.0
23/05:00pm 14.0 13.9 9.6 75 2.2 CALM 0 0 0 0 1022.3 1022.3 0.0
23/04:30pm 15.0 14.2 9.8 71 2.7 ESE 4 7 2 4 1022.0 - 0.0
23/04:00pm 15.8 14.4 9.5 66 3.3 E 7 11 4 6 1021.8 1021.8 0.0
23/03:30pm 16.8 15.6 9.5 62 3.8 ESE 6 9 3 5 1021.8 - 0.0
23/03:00pm 16.6 15.1 9.3 62 3.8 E 7 11 4 6 1021.7 1021.7 0.0
23/02:30pm 16.9 15.3 8.6 58 4.3 E 7 11 4 6 1021.7 - 0.0
23/02:00pm 17.8 16.2 8.6 55 4.7 E 7 11 4 6 1021.9 1021.9 0.0
23/01:30pm 16.8 15.7 8.5 58 4.2 ESE 4 7 2 4 1022.3 - 0.0
23/01:00pm 17.1 15.9 8.0 55 4.6 SE 4 9 2 5 1022.6 1022.6 0.0
23/12:30pm 17.5 15.9 8.9 57 4.5 SE 7 13 4 7 1023.1 - 0.0
23/12:00pm 17.7 16.7 8.8 56 4.6 W 4 9 2 5 1023.8 1023.8 0.0
23/11:30am 16.4 15.3 9.8 65 3.5 ESE 6 9 3 5 1024.5 - 0.0
23/11:00am 16.7 15.7 8.9 60 4.0 WSW 4 9 2 5 1025.0 1025.0 0.0
23/10:30am 16.4 15.1 9.8 65 3.5 SW 7 15 4 8 1025.4 - 0.0
23/10:00am 15.7 15.2 10.9 73 2.5 S 4 7 2 4 1025.6 1025.6 0.0
23/09:30am 13.7 14.2 11.6 87 1.1 CALM 0 0 0 0 1025.5 - 0.0
23/09:00am 10.5 10.3 10.3 99 0.1 N 2 4 1 2 1025.5 1025.5 0.0
23/08:30am 7.2 6.5 6.9 98 0.1 CALM 0 0 0 0 1025.3 - 0.0
23/08:00am 6.0 5.0 5.7 98 0.1 CALM 0 0 0 0 1025.1 1025.1 0.0
23/07:30am 3.0 1.4 2.6 97 0.2 CALM 0 0 0 0 1024.8 - 0.0
23/07:00am 2.3 0.6 1.9 97 0.2 CALM 0 0 0 0 1024.3 1024.3 0.0
23/06:30am 2.4 0.7 2.0 97 0.2 CALM 0 0 0 0 1024.1 - 0.0
23/06:00am 2.6 1.0 2.2 97 0.2 SSE 0 0 0 0 1023.9 1023.9 0.0
23/05:30am 2.6 0.9 2.0 96 0.2 CALM 0 0 0 0 1023.7 - 0.0
23/05:00am 3.0 1.4 2.4 96 0.2 CALM 0 0 0 0 1023.5 1023.5 0.0
23/04:30am 3.1 1.5 2.5 96 0.2 CALM 0 0 0 0 1023.2 - 0.0
23/04:00am 3.3 1.7 2.7 96 0.2 CALM 0 0 0 0 1023.2 1023.2 0.0
23/03:30am 3.6 2.1 3.0 96 0.2 CALM 0 0 0 0 1023.4 - 0.0
23/03:00am 3.7 2.2 3.1 96 0.2 CALM 0 0 0 0 1023.7 1023.7 0.0
23/02:30am 3.8 2.3 3.2 96 0.2 SSE 0 0 0 0 1023.6 - 0.0
23/02:00am 4.2 2.8 3.6 96 0.2 CALM 0 0 0 0 1023.6 1023.6 0.0
23/01:30am 4.2 2.8 3.6 96 0.2 CALM 0 0 0 0 1023.8 - 0.0
23/01:00am 4.3 2.9 3.7 96 0.2 CALM 0 0 0 0 1023.8 1023.8 0.0
23/12:30am 4.5 3.2 3.9 96 0.3 CALM 0 0 0 0 1023.8 - 0.0
23/12:00am 5.0 3.7 4.3 95 0.3 SSE 0 0 0 0 1023.9 1023.9 0.0
 
Date/Time
EST
Tmp

°C
App
Tmp
°C
Dew
Point
°C
Rel
Hum
%
Delta-T

°C
Wind Press
QNH
hPa
Press
MSL
hPa
Rain
since
9 am
mm
Dir
 
Spd
km/h
Gust
km/h
Spd
kts
Gust
kts
22/11:30pm 5.2 4.0 4.5 95 0.3 CALM 0 0 0 0 1024.2 - 0.0
22/11:00pm 5.7 4.6 5.0 95 0.3 CALM 0 0 0 0 1024.2 1024.2 0.0
22/10:30pm 5.9 4.8 5.2 95 0.3 CALM 0 0 0 0 1024.4 - 0.0
22/10:00pm 6.0 4.9 5.3 95 0.3 CALM 0 0 0 0 1024.2 1024.2 0.0
22/09:30pm 6.6 5.7 5.9 95 0.3 CALM 0 0 0 0 1024.2 - 0.0
22/09:00pm 7.0 6.1 6.1 94 0.4 CALM 0 0 0 0 1024.3 1024.3 0.0
22/08:30pm 7.3 6.5 6.4 94 0.4 CALM 0 0 0 0 1024.3 - 0.0
22/08:00pm 7.6 6.8 6.5 93 0.5 CALM 0 0 0 0 1024.3 1024.3 0.0
22/07:30pm 8.5 7.9 7.4 93 0.5 SSE 0 0 0 0 1024.3 - 0.0
22/07:00pm 9.2 8.6 7.6 90 0.8 CALM 0 0 0 0 1024.2 1024.2 0.0
22/06:30pm 9.9 9.5 8.3 90 0.8 CALM 0 0 0 0 1023.9 - 0.0
22/06:00pm 10.8 10.6 8.9 88 0.9 CALM 0 0 0 0 1023.5 1023.5 0.0
22/05:30pm 12.0 11.7 8.8 81 1.6 CALM 0 0 0 0 1023.1 - 0.0
22/05:00pm 14.0 13.8 9.0 72 2.5 CALM 0 0 0 0 1022.9 1022.9 0.0
22/04:30pm 15.7 14.7 8.9 64 3.5 SE 4 7 2 4 1022.6 - 0.0
22/04:00pm 16.4 14.9 8.4 59 4.1 SE 6 9 3 5 1022.5 1022.5 0.0
22/03:30pm 17.0 15.6 8.7 58 4.3 S 6 9 3 5 1022.4 - 0.0
22/03:00pm 16.9 14.6 7.5 54 4.7 SE 9 17 5 9 1022.2 1022.2 0.0
22/02:30pm 16.3 14.3 8.5 60 4.0 ESE 9 17 5 9 1022.0 - 0.0
22/02:00pm 16.9 15.2 8.3 57 4.4 SE 7 11 4 6 1022.0 1022.0 0.0
22/01:30pm 17.6 16.1 9.2 58 4.4 SSE 7 13 4 7 1022.0 - 0.0
22/01:00pm 16.4 15.1 9.1 62 3.8 SSE 6 11 3 6 1022.3 1022.3 0.0
22/12:30pm 17.7 16.2 9.3 58 4.4 SSE 7 13 4 7 1022.5 - 0.0
22/12:00pm 16.1 15.3 9.8 66 3.3 SSE 4 9 2 5 1023.2 1023.2 0.0
22/11:30am 17.4 16.3 10.1 62 3.9 SW 6 11 3 6 1023.6 - 0.0
22/11:00am 15.5 14.4 9.8 69 3.0 SSW 6 9 3 5 1024.2 1024.2 0.0
22/10:30am 16.2 15.2 10.3 68 3.1 WSW 6 13 3 7 1024.6 - 0.0
22/10:00am 15.5 14.6 10.7 73 2.5 SSW 6 9 3 5 1024.6 1024.6 0.0
22/09:30am 14.4 14.0 11.2 81 1.7 S 4 11 2 6 1024.6 - 0.0
22/09:00am 12.9 13.6 12.1 95 0.4 CALM 0 0 0 0 1024.6 1024.6 0.2
22/08:30am 9.6 9.5 9.3 98 0.1 CALM 0 0 0 0 1024.7 - 0.2
22/08:00am 7.0 6.2 6.7 98 0.1 CALM 0 0 0 0 1024.4 1024.4 0.2
22/07:30am 5.1 3.9 4.7 97 0.2 CALM 0 0 0 0 1024.3 - 0.2
22/07:00am 4.8 3.5 4.2 96 0.3 CALM 0 0 0 0 1023.9 1023.9 0.2
22/06:30am 5.2 4.0 4.8 97 0.2 CALM 0 0 0 0 1023.7 - 0.2
22/06:00am 5.6 4.5 5.2 97 0.2 CALM 0 0 0 0 1023.5 1023.5 0.2
22/05:30am 5.7 4.6 5.3 97 0.2 CALM 0 0 0 0 1023.4 - 0.2
22/05:00am 5.3 4.2 4.9 97 0.2 CALM 0 0 0 0 1023.2 1023.2 0.2
22/04:30am 5.0 3.8 4.4 96 0.3 CALM 0 0 0 0 1023.1 - 0.2
22/04:00am 5.0 3.8 4.4 96 0.3 CALM 0 0 0 0 1023.0 1023.0 0.0
22/03:30am 5.3 4.1 4.7 96 0.3 CALM 0 0 0 0 1022.9 - 0.0
22/03:00am 5.6 4.5 5.0 96 0.3 CALM 0 0 0 0 1023.1 1023.1 0.0
22/02:30am 6.2 5.2 5.6 96 0.3 CALM 0 0 0 0 1023.2 - 0.0
22/02:00am 6.5 5.6 5.9 96 0.3 CALM 0 0 0 0 1023.3 1023.3 0.0
22/01:30am 6.9 6.1 6.3 96 0.3 CALM 0 0 0 0 1023.4 - 0.0
22/01:00am 6.8 5.9 6.1 95 0.3 CALM 0 0 0 0 1023.6 1023.6 0.0
22/12:30am 7.1 6.3 6.4 95 0.3 CALM 0 0 0 0 1023.6 - 0.0
22/12:00am 7.6 6.9 6.9 95 0.3 CALM 0 0 0 0 1023.7 1023.7 0.0
 
Date/Time
EST
Tmp

°C
App
Tmp
°C
Dew
Point
°C
Rel
Hum
%
Delta-T

°C
Wind Press
QNH
hPa
Press
MSL
hPa
Rain
since
9 am
mm
Dir
 
Spd
km/h
Gust
km/h
Spd
kts
Gust
kts
21/11:30pm 7.9 7.2 7.1 95 0.4 CALM 0 0 0 0 1023.9 - 0.0
21/11:00pm 8.1 7.5 7.3 95 0.4 CALM 0 0 0 0 1024.1 1024.1 0.0
21/10:30pm 8.1 7.5 7.3 95 0.4 CALM 0 0 0 0 1024.2 - 0.0
21/10:00pm 8.2 7.6 7.3 94 0.4 CALM 0 0 0 0 1024.2 1024.2 0.0
21/09:30pm 8.5 7.9 7.6 94 0.4 CALM 0 0 0 0 1024.3 - 0.0
21/09:00pm 8.9 8.4 8.0 94 0.4 CALM 0 0 0 0 1024.4 1024.4 0.0
21/08:30pm 8.9 8.4 8.0 94 0.4 CALM 0 0 0 0 1024.4 - 0.0
21/08:00pm 9.3 8.9 8.2 93 0.5 CALM 0 0 0 0 1024.4 1024.4 0.0
21/07:30pm 9.7 9.4 8.6 93 0.5 CALM 0 0 0 0 1024.3 - 0.0
21/07:00pm 10.3 10.1 9.1 92 0.6 CALM 0 0 0 0 1024.1 1024.1 0.0
21/06:30pm 10.8 10.6 8.9 88 0.9 CALM 0 0 0 0 1024.0 - 0.0
21/06:00pm 11.6 11.5 9.5 87 1.1 CALM 0 0 0 0 1023.8 1023.8 0.0
21/05:30pm 12.8 12.7 9.6 81 1.6 CALM 0 0 0 0 1023.6 - 0.0
21/05:00pm 14.1 14.2 10.1 77 2.1 CALM 0 0 0 0 1023.4 1023.4 0.0
21/04:30pm 15.1 14.4 10.1 72 2.6 SSE 4 7 2 4 1023.3 - 0.0
21/04:00pm 15.0 14.7 10.2 73 2.5 S 2 4 1 2 1023.4 1023.4 0.0
21/03:30pm 15.2 14.5 10.0 71 2.7 SSE 4 7 2 4 1023.3 - 0.0
21/03:00pm 16.0 14.6 9.4 65 3.4 S 7 15 4 8 1023.2 1023.2 0.0
21/02:30pm 16.4 14.9 9.3 63 3.7 SSE 7 13 4 7 1023.1 - 0.0
21/02:00pm 16.5 15.1 9.4 63 3.7 SSE 7 11 4 6 1023.2 1023.2 0.0
21/01:30pm 16.5 15.5 8.7 60 4.0 S 4 7 2 4 1023.3 - 0.0
21/01:00pm 16.7 15.1 8.7 59 4.1 E 7 15 4 8 1023.4 1023.4 0.0
21/12:30pm 17.2 15.7 8.4 56 4.5 ENE 6 9 3 5 1023.9 - 0.0
21/12:00pm 16.6 15.6 8.8 60 4.0 SE 4 7 2 4 1024.5 1024.5 0.0
21/11:30am 16.2 14.6 8.7 61 3.8 S 7 13 4 7 1025.1 - 0.0
21/11:00am 16.5 15.2 9.2 62 3.8 SSW 6 13 3 7 1025.6 1025.6 0.0
21/10:30am 15.3 13.7 8.8 65 3.3 SSW 7 13 4 7 1026.2 - 0.0
21/10:00am 14.8 13.4 9.0 68 2.9 SSW 6 11 3 6 1026.4 1026.4 0.0
21/09:30am 13.6 13.1 9.3 75 2.2 WSW 2 7 1 4 1026.6 - 0.0
21/09:00am 11.4 11.5 10.1 92 0.7 CALM 0 0 0 0 1026.5 1026.5 0.0
21/08:30am 10.6 10.7 10.0 96 0.3 CALM 0 0 0 0 1026.6 - 0.0
21/08:00am 8.8 8.4 8.4 97 0.2 CALM 0 0 0 0 1026.6 1026.6 0.0
21/07:30am 7.2 6.4 6.5 95 0.3 CALM 0 0 0 0 1026.5 - 0.0
21/07:00am 7.2 6.4 6.3 94 0.4 CALM 0 0 0 0 1026.2 1026.2 0.0
21/06:30am 8.0 7.3 7.1 94 0.4 CALM 0 0 0 0 1026.1 - 0.0
21/06:00am 8.5 7.9 7.6 94 0.4 CALM 0 0 0 0 1026.0 1026.0 0.0
21/05:30am 8.4 7.8 7.5 94 0.4 CALM 0 0 0 0 1025.7 - 0.0
21/05:00am 9.3 8.9 8.4 94 0.4 CALM 0 0 0 0 1025.6 1025.6 0.0
21/04:30am 9.6 9.3 8.7 94 0.4 CALM 0 0 0 0 1025.4 - 0.0
21/04:00am 9.5 9.2 8.6 94 0.4 CALM 0 0 0 0 1025.4 1025.4 0.0
21/03:30am 9.6 9.3 8.7 94 0.4 CALM 0 0 0 0 1025.3 - 0.0
21/03:00am 9.5 8.1 8.7 95 0.4 NE 6 9 3 5 1025.4 1025.4 0.0
21/02:30am 9.3 8.6 8.4 94 0.4 NNE 2 4 1 2 1025.4 - 0.0
21/02:00am 9.6 9.3 8.8 95 0.4 CALM 0 0 0 0 1025.6 1025.6 0.0
21/01:30am 9.1 8.7 8.3 95 0.4 CALM 0 4 0 2 1025.9 - 0.0
21/01:00am 8.7 8.2 7.9 95 0.4 CALM 0 0 0 0 1025.5 1025.5 0.0
21/12:30am 8.3 7.7 7.4 94 0.4 CALM 0 0 0 0 1025.5 - 0.0
21/12:00am 8.4 7.8 7.5 94 0.4 CALM 0 0 0 0 1025.7 1025.7 0.0
 
Date/Time
EST
Tmp

°C
App
Tmp
°C
Dew
Point
°C
Rel
Hum
%
Delta-T

°C
Wind Press
QNH
hPa
Press
MSL
hPa
Rain
since
9 am
mm
Dir
 
Spd
km/h
Gust
km/h
Spd
kts
Gust
kts
20/11:30pm 8.0 7.3 7.1 94 0.4 CALM 0 0 0 0 1025.8 - 0.0
20/11:00pm 8.2 7.6 7.3 94 0.4 CALM 0 0 0 0 1026.0 1026.0 0.0
20/10:30pm 8.2 7.6 7.3 94 0.4 CALM 0 0 0 0 1026.1 - 0.0
20/10:00pm 7.9 7.2 7.0 94 0.4 CALM 0 0 0 0 1026.3 1026.3 0.0
20/09:30pm 7.6 6.8 6.5 93 0.5 CALM 0 0 0 0 1026.3 - 0.0
20/09:00pm 7.6 6.8 6.5 93 0.5 CALM 0 0 0 0 1026.1 1026.1 0.0
20/08:30pm 7.9 7.2 6.8 93 0.5 CALM 0 0 0 0 1026.1 - 0.0
20/08:00pm 7.8 6.6 6.6 92 0.5 N 2 4 1 2 1026.0 1026.0 0.0
20/07:30pm 8.4 7.7 7.0 91 0.7 CALM 0 0 0 0 1025.9 - 0.0
20/07:00pm 9.1 8.5 7.5 90 0.8 CALM 0 0 0 0 1025.7 1025.7 0.0
20/06:30pm 9.6 9.0 7.4 86 1.0 CALM 0 0 0 0 1025.7 - 0.0
20/06:00pm 11.4 10.9 7.7 78 1.8 CALM 0 4 0 2 1025.4 1025.4 0.0

Latest Capital City Observations: Canberra | Sydney | Melbourne | Brisbane | Adelaide | Perth | Hobart | Darwin

Other Formats:

Comma delimited format used in spreadsheet applications
http://www.bom.gov.au/fwo/IDN60901/IDN60901.95767.axf

JavaScript Object Notation format (JSON) in row-major order
http://www.bom.gov.au/fwo/IDN60901/IDN60901.95767.json